Weather History for Klawock, AK

Change the Weather History Date:

Friday, November 23, 2012

  Actual Average Record
Temperature  
Mean Temperature 42 °F -  
Max Temperature 45 °F 40 °F 53 °F (2005)
Min Temperature 39 °F 33 °F 19 °F (2006)
Degree Days  
Heating Degree Days 23    
Moisture  
Dew Point 37 °F    
Average Humidity 82    
Maximum Humidity 93    
Minimum Humidity 63    
Precipitation  
Precipitation 1.06 in - - ()
Sea Level Pressure  
Sea Level Pressure 29.48 in    
Wind  
Wind Speed 4 mph (SSE)    
Max Wind Speed 10 mph    
Max Gust Speed 22 mph    
Visibility 8 miles    
Events Rain    
Averages and records for this station are not official NWS values.
T = Trace of Precipitation, MM = Missing Value Source: NWS Daily Summary

Daily Weather History Graph

Daily Weather History Graph

Search for Another Location

Airport:

Trip Planner

Search our weather history database for the weather conditions in past years. The results will help you decide how hot, cold, wet, or windy it might be!

Date:

Astronomy

Nov. 23, 2012 Rise Set
Actual Time 7:43 AM AKST 3:33 PM AKST
Civil Twilight 7:00 AM AKST 4:16 PM AKST
Nautical Twilight 6:14 AM AKST 5:03 PM AKST
Astronomical Twilight 5:30 AM AKST 5:47 PM AKST
Moon 1:28 PM AKST (11/23) 2:28 AM AKST (11/23)
Length of Visible Light 9h 16m
Length of Day
7h 49m
Waxing Gibbous, 81% of the Moon is Illuminated
Nov 23
Waxing Gibbous
Nov 28
Full
Dec 6
Last Quarter
Dec 12
New
Dec 19
First Quarter

Hourly Weather History & Observations

Time (AKST) Temp. Windchill Dew Point Humidity Pressure Visibility Wind Dir Wind Speed Gust Speed Precip Events Conditions
12:53 AM 43.0 °F 38.8 °F 34.0 °F 71% 29.44 in 10.0 mi Variable 6.9 mph - 0.00 in Rain Light Rain
1:53 AM 39.9 °F - 37.0 °F 89% 29.47 in 7.0 mi Calm Calm - 0.04 in Rain Light Rain
2:09 AM 39.2 °F 37.0 °F 35.6 °F 87% 29.46 in 10.0 mi Variable 3.5 mph - 0.00 in Rain Light Rain
2:21 AM 39.2 °F 37.0 °F 35.6 °F 87% 29.46 in 10.0 mi Variable 3.5 mph - 0.00 in   Mostly Cloudy
2:53 AM 39.0 °F - 36.0 °F 89% 29.46 in 10.0 mi Calm Calm - 0.00 in   Mostly Cloudy
3:53 AM 41.0 °F - 34.0 °F 76% 29.46 in 10.0 mi Calm Calm - 0.01 in   Partly Cloudy
4:53 AM 41.0 °F 38.0 °F 35.1 °F 79% 29.46 in 10.0 mi SSE 4.6 mph - 0.00 in Rain Light Rain
5:53 AM 42.1 °F 40.2 °F 34.0 °F 73% 29.45 in 10.0 mi Variable 3.5 mph - 0.00 in   Scattered Clouds
6:53 AM 43.0 °F 40.3 °F 33.1 °F 68% 29.46 in 10.0 mi Variable 4.6 mph - 0.00 in   Mostly Cloudy
7:53 AM 42.1 °F - 35.1 °F 76% 29.47 in 10.0 mi Calm Calm - 0.01 in Rain Light Rain
8:53 AM 42.1 °F 37.7 °F 35.1 °F 76% 29.48 in 10.0 mi Variable 6.9 mph - 0.01 in   Overcast
9:53 AM 44.1 °F 39.0 °F 34.0 °F 68% 29.48 in 10.0 mi SE 9.2 mph 21.9 mph 0.00 in Rain Light Rain
10:53 AM 45.0 °F 40.1 °F 33.1 °F 63% 29.47 in 10.0 mi ESE 9.2 mph 20.7 mph 0.00 in   Overcast
11:53 AM 43.0 °F 37.7 °F 36.0 °F 76% 29.49 in 6.0 mi SSE 9.2 mph - 0.01 in Rain Light Rain
12:44 PM 42.8 °F 40.1 °F 37.4 °F 81% 29.49 in 6.0 mi Variable 4.6 mph - 0.03 in Rain Light Rain
12:53 PM 42.1 °F 37.1 °F 37.0 °F 82% 29.49 in 5.0 mi SSE 8.1 mph - 0.04 in Rain Light Rain
1:32 PM 42.8 °F 40.1 °F 37.4 °F 81% 29.48 in 8.0 mi Variable 4.6 mph - 0.02 in Rain Light Rain
1:53 PM 43.0 °F 39.5 °F 36.0 °F 76% 29.47 in 10.0 mi Variable 5.8 mph - 0.02 in Rain Light Rain
2:53 PM 42.1 °F 39.2 °F 37.0 °F 82% 29.47 in 8.0 mi Variable 4.6 mph - 0.02 in Rain Light Rain
3:05 PM 42.8 °F 38.6 °F 37.4 °F 81% 29.47 in 5.0 mi Variable 6.9 mph - 0.01 in Rain Light Rain
3:53 PM 41.0 °F 39.0 °F 37.9 °F 89% 29.48 in 7.0 mi Variable 3.5 mph - 0.08 in Rain Light Rain
4:53 PM 41.0 °F 39.0 °F 37.9 °F 89% 29.48 in 7.0 mi Variable 3.5 mph - 0.09 in Rain Light Rain
5:21 PM 39.2 °F - 37.4 °F 93% 29.48 in 10.0 mi Calm Calm - 0.01 in Rain Light Rain
5:53 PM 41.0 °F 38.0 °F 37.9 °F 89% 29.49 in 5.0 mi Variable 4.6 mph - 0.05 in Rain Rain
6:03 PM 41.0 °F - 37.4 °F 87% 29.49 in 5.0 mi Calm Calm - 0.01 in Rain Light Rain
6:46 PM 42.8 °F 41.1 °F 37.4 °F 81% 29.48 in 10.0 mi Variable 3.5 mph - 0.07 in   Overcast
6:53 PM 42.1 °F 38.4 °F 37.9 °F 85% 29.48 in 10.0 mi South 5.8 mph - 0.07 in Rain Light Rain
7:53 PM 42.1 °F 37.7 °F 37.9 °F 85% 29.49 in 10.0 mi Variable 6.9 mph - 0.06 in Rain Light Rain
8:53 PM 41.0 °F 39.0 °F 37.9 °F 89% 29.50 in 4.0 mi Variable 3.5 mph - 0.24 in Rain Rain
9:53 PM 42.1 °F 39.2 °F 39.0 °F 89% 29.50 in 7.0 mi Variable 4.6 mph - 0.12 in Rain Rain
10:53 PM 41.0 °F 37.1 °F 37.9 °F 89% 29.52 in 6.0 mi Variable 5.8 mph - 0.12 in Rain Rain
11:35 PM 42.8 °F 38.6 °F 39.2 °F 87% 29.52 in 8.0 mi Variable 6.9 mph 20.7 mph 0.04 in Rain Light Rain
11:53 PM 42.1 °F 36.1 °F 39.0 °F 89% 29.53 in 6.0 mi SSE 10.4 mph 18.4 mph 0.07 in Rain Light Rain